Item Display Status Humidity-temperature Sensor

Elevation Above Sea Level: 3 m

 

Deployed Sensor

  • Serial Number: 20351123
  • NDBC Property Number: 43293
  • Start Date: 4/17/2020 (10:35:43 Z)
  • End Date: Currently Active
Relative Humidity [%]     6 entries per hour
Showing data from 4/12/2021 (19:00:00 Z) to 4/11/2021 (00:00:01 Z)
Previous Next [ Day | 3-Days | 7-Days ]
First Last
Prev [ Day | 3-Days | 7-Days ] Next
First Last

Start Time:     :
End Time:     :     
Time (in GMT) :00 :50 :40 :30 :20 :10
Previous Next [ Day | 3-Days | 7-Days ]
First Last
Prev [ Day | 3-Days | 7-Days ] Next
First Last


123 => good data
MM => data is determined as missing
-- => data not received/configured
Back to Top Back to Top
4/12/2021 19:00 to 18:10 81.24 81.61 81.43 81.90 81.78 82.37
4/12/2021 18:00 to 17:10 82.13 82.42 82.60 82.17 82.02 82.21
4/12/2021 17:00 to 16:10 82.17 82.09 82.66 83.53 84.02 84.20
4/12/2021 16:00 to 15:10 84.68 84.80 84.31 84.12 84.31 84.96
4/12/2021 15:00 to 14:10 84.96 85.05 84.96 84.76 84.06 83.59
4/12/2021 14:00 to 13:10 81.80 80.87 80.26 80.38 80.92 82.13
4/12/2021 13:00 to 12:10 82.64 83.26 83.55 83.65 83.44 83.63
4/12/2021 12:00 to 11:10 84.20 84.33 83.42 81.39 80.40 81.74
4/12/2021 11:00 to 10:10 81.35 80.79 81.12 82.05 82.39 81.39
4/12/2021 10:00 to 9:10 81.37 81.96 82.79 82.95 82.66 82.74
4/12/2021 09:00 to 8:10 83.24 83.53 83.61 83.42 83.42 83.48
4/12/2021 08:00 to 7:10 83.77 83.69 83.75 84.18 84.43 84.20
4/12/2021 07:00 to 6:10 84.59 84.45 84.53 84.66 84.70 84.78
4/12/2021 06:00 to 5:10 85.00 84.61 84.41 84.12 83.92 83.85
4/12/2021 05:00 to 4:10 83.61 83.26 83.24 83.34 83.44 83.36
4/12/2021 04:00 to 3:10 83.24 83.46 83.73 84.00 83.96 84.00
4/12/2021 03:00 to 2:10 84.20 83.89 83.55 83.30 82.95 82.56
4/12/2021 02:00 to 1:10 82.29 82.05 81.86 81.53 81.04 80.44
4/12/2021 01:00 to 0:10 80.13 80.03 79.54 78.74 77.38 75.74
4/12/2021 00:00 to 23:10 73.99 72.80 72.37 73.62 75.06 78.39
4/11/2021 23:00 to 22:10 80.05 80.57 80.85 80.55 79.91 79.72
4/11/2021 22:00 to 21:10 79.81 79.21 79.17 78.82 77.92 77.81
4/11/2021 21:00 to 20:10 77.77 77.36 77.05 77.13 78.20 81.92
4/11/2021 20:00 to 19:10 84.02 86.13 87.72 89.01 89.77 90.41
4/11/2021 19:00 to 18:10 91.19 91.19 91.25 91.56 92.11 93.22
4/11/2021 18:00 to 17:10 94.19 94.81 94.97 95.71 96.33 97.07
4/11/2021 17:00 to 16:10 97.03 96.84 96.70 96.64 96.45 95.90
4/11/2021 16:00 to 15:10 94.66 93.22 91.56 91.77 92.18 92.55
4/11/2021 15:00 to 14:10 92.67 91.70 90.22 89.38 89.46 89.50
4/11/2021 14:00 to 13:10 89.55 89.65 89.65 89.53 89.42 89.42
4/11/2021 13:00 to 12:10 89.73 90.12 90.53 90.45 90.39 90.24
4/11/2021 12:00 to 11:10 90.18 90.20 90.24 90.24 90.29 90.35
4/11/2021 11:00 to 10:10 90.39 90.33 90.45 90.43 90.47 90.61
4/11/2021 10:00 to 9:10 90.66 90.78 90.68 90.66 90.57 90.39
4/11/2021 09:00 to 8:10 90.22 89.85 89.77 89.38 89.18 89.30
4/11/2021 08:00 to 7:10 89.30 89.11 89.03 88.81 88.77 88.60
4/11/2021 07:00 to 6:10 88.60 88.46 88.29 88.11 87.98 87.78
4/11/2021 06:00 to 5:10 87.63 87.59 87.66 87.57 87.49 87.26
4/11/2021 05:00 to 4:10 87.29 87.12 86.92 86.77 86.81 86.79
4/11/2021 04:00 to 3:10 86.75 86.77 86.92 87.12 87.14 86.96
4/11/2021 03:00 to 2:10 86.77 86.77 86.63 86.34 86.20 86.34
4/11/2021 02:00 to 1:10 86.63 86.83 86.55 86.05 85.17 84.35
4/11/2021 01:00 to 0:10 83.94 83.46 83.42 83.07 82.39 81.86

 

 

 

Air Temperature [°C]     6 entries per hour
Showing data from 4/12/2021 (19:00:00 Z) to 4/11/2021 (00:00:01 Z)
Previous Next [ Day | 3-Days | 7-Days ]
First Last
Prev [ Day | 3-Days | 7-Days ] Next
First Last

Start Time:     :
End Time:     :     
Time (in GMT) :00 :50 :40 :30 :20 :10
Previous Next [ Day | 3-Days | 7-Days ]
First Last
Prev [ Day | 3-Days | 7-Days ] Next
First Last


123 => good data
MM => data is determined as missing
-- => data not received/configured
Back to Top Back to Top
4/12/2021 19:00 to 18:10 28.17 28.17 28.14 28.31 28.26 28.05
4/12/2021 18:00 to 17:10 28.01 28.00 28.09 28.22 28.05 28.10
4/12/2021 17:00 to 16:10 27.95 28.08 27.82 27.98 27.84 27.92
4/12/2021 16:00 to 15:10 27.95 27.86 28.10 27.81 27.93 28.04
4/12/2021 15:00 to 14:10 27.90 27.96 27.95 27.89 27.97 28.01
4/12/2021 14:00 to 13:10 28.20 28.01 28.05 27.99 28.01 27.71
4/12/2021 13:00 to 12:10 27.65 27.59 27.68 27.73 27.64 27.50
4/12/2021 12:00 to 11:10 27.54 27.63 27.66 27.90 27.36 27.57
4/12/2021 11:00 to 10:10 27.64 27.63 27.39 27.50 27.60 27.63
4/12/2021 10:00 to 9:10 27.42 27.38 27.36 27.50 27.43 27.43
4/12/2021 09:00 to 8:10 27.30 27.47 27.41 27.52 27.42 27.43
4/12/2021 08:00 to 7:10 27.49 27.42 27.35 27.52 27.57 27.48
4/12/2021 07:00 to 6:10 27.49 27.49 27.58 27.57 27.55 27.62
4/12/2021 06:00 to 5:10 27.67 27.68 27.74 27.75 27.69 27.72
4/12/2021 05:00 to 4:10 27.68 27.73 27.70 27.81 27.70 27.80
4/12/2021 04:00 to 3:10 27.79 27.70 27.70 27.80 27.64 27.76
4/12/2021 03:00 to 2:10 27.79 27.76 27.75 27.88 27.83 27.73
4/12/2021 02:00 to 1:10 27.76 27.85 27.97 28.02 28.05 28.06
4/12/2021 01:00 to 0:10 27.96 28.05 27.99 28.29 28.47 29.11
4/12/2021 00:00 to 23:10 29.51 29.86 29.90 29.57 29.45 28.79
4/11/2021 23:00 to 22:10 28.04 28.07 28.16 28.14 27.94 27.96
4/11/2021 22:00 to 21:10 28.07 27.98 28.09 27.97 28.00 27.89
4/11/2021 21:00 to 20:10 27.92 28.21 28.07 28.00 27.99 27.44
4/11/2021 20:00 to 19:10 27.46 27.27 27.10 26.95 27.01 26.79
4/11/2021 19:00 to 18:10 26.81 26.66 26.61 26.35 26.27 25.89
4/11/2021 18:00 to 17:10 25.68 25.86 26.15 25.50 25.33 25.23
4/11/2021 17:00 to 16:10 24.98 24.97 24.95 25.06 24.85 25.57
4/11/2021 16:00 to 15:10 25.79 25.88 26.37 26.08 26.09 25.48
4/11/2021 15:00 to 14:10 26.05 26.41 26.78 27.03 27.01 27.11
4/11/2021 14:00 to 13:10 27.07 27.05 27.01 27.07 27.01 26.97
4/11/2021 13:00 to 12:10 26.81 26.89 26.91 26.87 26.84 26.79
4/11/2021 12:00 to 11:10 26.83 26.84 26.88 26.82 26.76 26.81
4/11/2021 11:00 to 10:10 26.81 26.83 26.86 26.86 26.78 26.81
4/11/2021 10:00 to 9:10 26.87 26.84 26.88 26.88 26.95 26.87
4/11/2021 09:00 to 8:10 26.97 26.95 26.98 26.95 26.88 26.90
4/11/2021 08:00 to 7:10 26.99 27.02 27.00 26.99 26.98 27.05
4/11/2021 07:00 to 6:10 27.04 27.10 27.09 27.12 27.20 27.16
4/11/2021 06:00 to 5:10 27.18 27.19 27.24 27.27 27.32 27.35
4/11/2021 05:00 to 4:10 27.30 27.39 27.40 27.35 27.38 27.44
4/11/2021 04:00 to 3:10 27.39 27.30 27.34 27.34 27.45 27.43
4/11/2021 03:00 to 2:10 27.42 27.44 27.44 27.44 27.41 27.40
4/11/2021 02:00 to 1:10 27.30 27.39 27.40 27.49 27.57 27.50
4/11/2021 01:00 to 0:10 27.49 27.44 27.46 27.56 27.76 28.15